Montgomery, AL

2:46 PM CDT on October 20, 2017 (GMT -0500)
Montgomery Regional

Weather History for KMGM - August, 2014

Change the Weather History Date:

Saturday, August 16, 2014

  Actual Average Record
Temperature  
Mean Temperature 80 °F 82 °F  
Max Temperature 94 °F 92 °F 102 °F (1954)
Min Temperature 66 °F 71 °F 63 °F (1983)
Cooling Degree Days 15 17  
Month to date cooling degree days 278 272  
Year to date cooling degree days 1624 1551  
Since 1 June cooling degree days 1258 1212  
Growing Degree Days 30 (Base 50)    
Moisture  
Dew Point 65 °F    
Average Humidity 65    
Maximum Humidity 93    
Minimum Humidity 36    
Precipitation  
Precipitation 0.00 in 0.12 in 6.97 in (1939)
Month to date precipitation 1.34 2.08  
Year to date precipitation 37.68 34.83  
Sea Level Pressure  
Sea Level Pressure 30.01 in    
Wind  
Wind Speed 3 mph (SW)    
Max Wind Speed 12 mph    
Max Gust Speed 17 mph    
Visibility 9 miles    
Events      
T = Trace of Precipitation, MM = Missing Value Source: NWS Daily Summary

Daily Weather History Graph

Daily Weather History Graph

Search for Another Location

Airport or City:

Trip Planner

Search our weather history database for the weather conditions in past years. The results will help you decide how hot, cold, wet, or windy it might be!

Date:

Astronomy

Aug. 16, 2014 Rise Set
Actual Time 6:10 AM CDT 7:28 PM CDT
Civil Twilight 5:44 AM CDT 7:54 PM CDT
Nautical Twilight 5:13 AM CDT 8:25 PM CDT
Astronomical Twilight 4:41 AM CDT 8:57 PM CDT
Moon 11:37 PM CDT (8/16) 12:30 PM CDT (8/16)
Length of Visible Light 14h 09m
Length of Day
13h 18m
Waning Gibbous, 58% of the Moon is Illuminated
Aug 16
Waning Gibbous
Aug 17
Last Quarter
Aug 25
New
Sep 2
First Quarter
Sep 8
Full

Hourly Weather History & Observations

Time (CDT) Temp. Heat Index Dew Point Humidity Pressure Visibility Wind Dir Wind Speed Gust Speed Precip Events Conditions
12:53 AM 70.0 °F - 66.0 °F 87% 29.98 in 9.0 mi Calm Calm - N/A   Clear
1:53 AM 70.0 °F - 64.9 °F 84% 29.98 in 10.0 mi Calm Calm - N/A   Clear
2:53 AM 69.1 °F - 64.0 °F 84% 29.99 in 9.0 mi Calm Calm - N/A   Clear
3:53 AM 66.9 °F - 64.0 °F 90% 29.99 in 7.0 mi Calm Calm - N/A   Clear
4:53 AM 68.0 °F - 64.0 °F 87% 29.99 in 8.0 mi Calm Calm - N/A   Clear
5:53 AM 66.0 °F - 63.0 °F 90% 30.01 in 5.0 mi Calm Calm - N/A   Clear
6:53 AM 66.9 °F - 64.0 °F 90% 30.03 in 4.0 mi Calm Calm - N/A   Clear
7:53 AM 73.0 °F - 66.0 °F 79% 30.05 in 10.0 mi Calm Calm - N/A   Clear
8:53 AM 79.0 °F - 66.0 °F 64% 30.05 in 10.0 mi Calm Calm - N/A   Clear
9:53 AM 84.0 °F 86.3 °F 66.0 °F 55% 30.06 in 10.0 mi Calm Calm - N/A   Clear
10:53 AM 89.1 °F 90.3 °F 64.0 °F 43% 30.06 in 10.0 mi Variable 5.8 mph - N/A   Clear
11:53 AM 91.0 °F 91.5 °F 62.1 °F 38% 30.05 in 10.0 mi West 9.2 mph - N/A   Partly Cloudy
12:53 PM 90.0 °F 90.3 °F 62.1 °F 39% 30.04 in 10.0 mi SSW 3.5 mph - N/A   Partly Cloudy
1:53 PM 93.0 °F 94.2 °F 63.0 °F 37% 30.03 in 10.0 mi WNW 9.2 mph - N/A   Scattered Clouds
2:53 PM 91.9 °F 91.8 °F 61.0 °F 35% 30.00 in 10.0 mi West 5.8 mph - N/A   Partly Cloudy
3:53 PM 93.0 °F 94.2 °F 63.0 °F 37% 29.99 in 10.0 mi WNW 8.1 mph - N/A   Partly Cloudy
4:53 PM 93.0 °F 93.8 °F 62.1 °F 36% 29.99 in 10.0 mi SSW 5.8 mph - N/A   Partly Cloudy
5:53 PM 91.9 °F 92.5 °F 62.1 °F 37% 29.97 in 10.0 mi Calm Calm - N/A   Clear
6:53 PM 90.0 °F 90.6 °F 63.0 °F 40% 29.99 in 10.0 mi Calm Calm - N/A   Clear
7:53 PM 82.0 °F 84.9 °F 68.0 °F 62% 29.99 in 10.0 mi Calm Calm - N/A   Clear
8:53 PM 79.0 °F - 68.0 °F 69% 30.00 in 10.0 mi South 4.6 mph - N/A   Clear
9:53 PM 77.0 °F - 69.1 °F 76% 30.01 in 10.0 mi Calm Calm - N/A   Clear
10:53 PM 78.1 °F - 68.0 °F 71% 30.02 in 10.0 mi SSW 4.6 mph - N/A   Partly Cloudy
11:53 PM 78.1 °F - 70.0 °F 76% 30.02 in 10.0 mi SSW 4.6 mph - N/A   Mostly Cloudy